Location: Bothwell
(42.3833°S, 147.0000°E)
Time: 20:01:33
(UTC+11:00)

SEEDS - Pass Details

Date: 04 October 2022
Orbit: 577 x 596 km, 97.6° (Epoch: 25 November)

Event Time Altitude Azimuth Distance (km) Brightness Sun altitude
Exits shadow 04:35:08 79° 343° (NNW) 604 ? -22.9°
Maximum altitude 04:35:21 85° 282° (WNW) 597 ? -22.9°
Drops below altitude 10° 04:39:33 10° 194° (SSW) 1,933 ? -22.2°
Sets 04:41:44 0° 192° (SSW) 2,844 ? -21.8°
